Location: Unspecified
(0.0000°N, 0.0000°E)
Time: 21:27:24
(UTC+02:00)

Atlas Centaur 2 - Visible Passes

Search period start: 26 April 2015 00:00
Search period end: 06 May 2015 00:00
Orbit: 460 x 1321 km, 30.4° (Epoch: 26 April)

Date Brightness Start Highest point End Pass type
(mag) Time Alt. Az. Time Alt. Az. Time Alt. Az.
26 Apr 2.5 20:40:57 10° SW 20:47:53 55° SSE 20:52:33 15° ENE visible
26 Apr 4.0 22:31:47 10° W 22:35:21 26° WNW 22:35:21 26° WNW visible
27 Apr 2.4 20:38:40 10° SW 20:45:58 75° SSE 20:51:39 10° ENE visible
27 Apr 4.1 22:30:20 10° W 22:34:34 23° NW 22:34:34 23° NW visible
28 Apr 2.6 20:36:31 10° WSW 20:43:59 82° NNW 20:49:49 10° NE visible
28 Apr 4.4 22:29:08 10° WNW 22:33:08 17° NNW 22:33:48 17° NNW visible
29 Apr 3.1 20:34:29 10° WSW 20:41:58 62° NNW 20:47:52 10° NE visible
29 Apr 4.7 22:28:21 10° WNW 22:31:14 13° NNW 22:33:01 11° NNW visible
30 Apr 3.6 20:32:36 10° WSW 20:39:55 47° NW 20:45:48 10° NE visible
01 May 4.0 05:51:18 12° NNE 05:52:03 13° NNE 05:54:07 10° ENE visible
01 May 4.1 20:30:51 10° W 20:37:53 36° NNW 20:43:38 10° NNE visible
02 May 3.6 05:50:26 19° NE 05:50:26 19° NE 05:53:12 10° E visible
02 May 4.6 20:29:17 10° W 20:35:51 28° NNW 20:41:19 10° NNE visible
03 May 3.4 05:49:36 23° ENE 05:49:36 23° ENE 05:51:51 10° E visible
03 May 4.8 20:27:56 10° W 20:33:52 22° NNW 20:38:53 10° NNE visible
04 May 3.6 05:48:44 20° E 05:48:44 20° E 05:50:14 10° ESE visible
04 May 2.9 07:32:14 10° WSW 07:35:20 21° SSW 07:38:49 10° SSE visible
04 May 5.0 20:26:50 10° WNW 20:31:56 18° NNW 20:36:17 10° N visible
05 May 4.0 05:47:50 14° ESE 05:47:50 14° ESE 05:48:26 10° ESE visible
05 May 3.3 07:31:27 10° WSW 07:33:37 14° SSW 07:35:53 10° S visible
05 May 5.2 20:26:05 10° WNW 20:30:03 14° NNW 20:33:25 10° N visible
